Regional Weather Roundup
Issued by NWS

Home | Current Version | Previous Version | Graphics & Text | Print | Product List | Glossary On
Versions: 1 2 3 4 5 6 7 8 9 10 11 12 13 14 15 16 17 18 19 20 21 22 23 24 25 26 27 28 29 30 31 32 33 34 35 36 37 38 39 40 41 42 43 44 45 46 47 48 49 50
000
ASUS43 KIND 281409
RWRIN

WEATHER ROUNDUP FOR INDIANA
NATIONAL WEATHER SERVICE INDIANAPOLIS IN
1000 AM EDT WED JUN 28 2017

NOTE: "FAIR" INDICATES FEW OR NO CLOUDS BELOW 12,000 FEET WITH NO
SIGNIFICANT WEATHER AND/OR OBSTRUCTIONS TO VISIBILITY.

* - STATION DOES NOT REPORT WEATHER SUCH AS PRECIPITATION OR FOG.

+ - STATION NOT QUALITY CONTROLLED BY THE NATIONAL WEATHER SERVICE.
    USE DATA WITH CAUTION...ESPECIALLY DEWPOINT AND RELATIVE
    HUMIDITY OBSERVATIONS.

INZ001>003-010>013-019-020-281500-
NORTHWEST INDIANA

CITY           SKY/WX    TMP DP  RH WIND       PRES   REMARKS
GARY /AIRPORT/ CLOUDY    68  48  49 S9        30.03F
KNOX *+        CLOUDY    66  41  39 S10G18    30.08R
LA PORTE +     PTSUNNY   66  50  56 S7        30.08S
MICHIGAN CITY+ CLOUDY    66  50  55 S10       30.07S
MONTICELLO +   CLOUDY    67  52  59 S8        30.09S
RENSSELAER +   PTSUNNY   68  46  45 S15       30.07F
VALPARAISO     CLOUDY    69  52  54 S12       30.07R

$$

LMZ046-743>745-281500-
SOUTHERN LAKE MICHIGAN

STATION/POSITION TIME  TEMP    WIND        PRES    WAVE
                       AIR SEA DIR/SP/G            HT
                 (UTC) (F)     (DEG/KT/KT) (MB)    (FT)
BURNS HARBOR     1405   68     180/ 12/ 20 1017.3
MICHIGAN CITY    1340   66     160/ 13/ 16   N/A
5NW MICH CITY    1400   66 66  180/ 16/ 19   N/A     2

$$

INZ004-005-014>016-021>024-281500-
NORTH CENTRAL INDIANA

CITY           SKY/WX    TMP DP  RH WIND       PRES   REMARKS
ELKHART        PTSUNNY   70  50  49 S12       30.09R
GOSHEN         CLOUDY    69  49  48 S12       30.10R
LOGANSPORT +   CLOUDY    68  52  56 S13       30.11S
PERU/GRISSOM   CLOUDY    68  54  59 S16       30.11R
ROCHESTER +    CLOUDY    70  52  52 S9        30.11R
SOUTH BEND     PTSUNNY   68  51  54 S14       30.08R
WARSAW +       CLOUDY    66  50  55 S8        30.11R

$$

INZ006>009-017-018-025>027-281500-
NORTHEAST INDIANA

CITY           SKY/WX    TMP DP  RH WIND       PRES   REMARKS
ANGOLA *+      SUNNY     70  61  73 S8        30.10S
AUBURN +       CLOUDY    68  50  52 S5        30.11F
FORT WAYNE     CLOUDY    68  52  56 S15       30.12R
HUNTINGTON +   CLOUDY    68  53  58 S5        30.11F
KENDALLVILLE + CLOUDY    68  51  54 S10       30.10F

$$

INZ028-029-035-036-043>045-051>053-281500-
WEST CENTRAL INDIANA

CITY           SKY/WX    TMP DP  RH WIND       PRES   REMARKS
CRAWFORDSVL +  MOSUNNY   66  54  64 S10       30.12S
GREENCASTLE +  CLOUDY    66  54  63 S6        30.14R
LAFAYETTE      CLOUDY    68  55  63 S8        30.09S
TERRE HAUTE    CLOUDY    69  55  60 S8        30.12R

$$

INZ030>032-037>040-046>048-054>057-064-065-281500-
CENTRAL INDIANA

CITY           SKY/WX    TMP DP  RH WIND       PRES   REMARKS
CP ATTERBURY + CLOUDY    68  54  60 S8        30.16R
COLUMBUS       SUNNY     66  52  59 S9        30.15S
FRANKFORT +    CLOUDY    71  55  57 S8        30.13S
GREENWOOD *+   MOSUNNY   69  51  53 S8        30.15R
INDIANAPOLIS   CLOUDY    69  54  58 S10       30.13R
-EAGLE CREEK   CLOUDY    69  52  54 VRB6      30.14R
KOKOMO +       MOSUNNY   69  53  56 S14G20    30.14R
MARION +       CLOUDY    68  52  56 S14       30.14S
MT COMFORT *+  CLOUDY    66  52  59 S10       30.14R
SHELBYVILLE    CLOUDY    70  50  49 S12       30.15R
ZIONSVILLE +   MOSUNNY   67  52  58 S8        30.14R

$$

INZ033-034-041-042-049-050-058-059-281500-
EAST CENTRAL INDIANA

CITY           SKY/WX    TMP DP  RH WIND       PRES   REMARKS
MUNCIE         SUNNY     70  51  51 S12       30.14R
RICHMOND +     SUNNY     64  54  68 S10       30.17R

$$

INZ060-061-067>069-081>083-085>088-281500-
SOUTHWEST INDIANA

CITY           SKY/WX    TMP DP  RH WIND       PRES   REMARKS
EVANSVILLE     SUNNY     72  56  57 S7        30.13R
HUNTINGBURG *+ MOSUNNY   71  58  63 S7        30.14R
WASHINGTON +   MOSUNNY   69  54  58 S10       30.13R

$$

INZ062-063-066-070>080-084-089>092-281500-
SOUTH CENTRAL AND SOUTHEAST INDIANA

CITY           SKY/WX    TMP DP  RH WIND       PRES   REMARKS
BEDFORD +      CLOUDY    66  54  63 S3        30.15R
BLOOMINGTON    CLOUDY    67  54  63 S7        30.15R
MADISON *+     SUNNY     70  50  49 SE7       30.18S
NORTH VERNON + SUNNY     68  52  56 S6        30.16R
SEYMOUR +      CLOUDY    70  54  56 S7        30.16R

$$




USA.gov is the U.S. government's official web portal to all federal, state and local government web resources and services.